RPC2002 RPLL-RPLB

Flight info

Callsign RPC2002
Flight time N/A
Altitude 6500
Route RPLL RPLB
Aircraft C172/L-SFG/C

Departure

Time 2026-04-30 08:41
Airport Ninoy Aquino International Airport (RPLL)

Arrival

Time N/A
Airport Subic Bay International Airport / Naval Air Station Cubi Point (RPLB)
Time Latitude Longitude Altitude Speed Heading
2026-04-30 08:33 14.52676 121.00487 64 ft 0 kts 186°
2026-04-30 08:37 14.52662 121.00486 60 ft 7 kts 192°
2026-04-30 08:37 14.52567 121.00475 60 ft 18 kts 184°
2026-04-30 08:37 14.52488 121.00502 64 ft 9 kts 202°
2026-04-30 08:38 14.52455 121.00461 64 ft 7 kts 223°
2026-04-30 08:38 14.52430 121.00437 64 ft 0 kts 231°
2026-04-30 08:40 14.52421 121.00425 62 ft 7 kts 234°
2026-04-30 08:40 14.52365 121.00401 57 ft 10 kts 138°
2026-04-30 08:40 14.52210 121.00560 61 ft 53 kts 137°
2026-04-30 08:41 14.51909 121.00898 154 ft 69 kts 129°
2026-04-30 08:41 14.51597 121.01290 329 ft 68 kts 132°
2026-04-30 08:41 14.51279 121.01648 502 ft 72 kts 133°
2026-04-30 08:41 14.50914 121.02041 694 ft 76 kts 140°
2026-04-30 08:42 14.50505 121.02378 868 ft 75 kts 140°
2026-04-30 08:42 14.50089 121.02709 1052 ft 75 kts 141°
2026-04-30 08:42 14.49664 121.03031 1259 ft 75 kts 140°
2026-04-30 08:42 14.49170 121.03094 1483 ft 88 kts 208°
2026-04-30 08:43 14.48846 121.02518 1676 ft 95 kts 239°
2026-04-30 08:43 14.48573 121.01897 1944 ft 94 kts 240°
2026-04-30 08:43 14.48289 121.01297 2241 ft 93 kts 240°
2026-04-30 08:43 14.48046 121.00676 2433 ft 98 kts 265°
2026-04-30 08:44 14.48239 121.00008 2629 ft 98 kts 280°
2026-04-30 08:44 14.48288 120.99312 2835 ft 97 kts 288°
2026-04-30 08:44 14.48704 120.98819 3040 ft 91 kts 326°
2026-04-30 08:44 14.49174 120.98377 3272 ft 92 kts 323°
2026-04-30 08:45 14.49648 120.97935 3431 ft 91 kts 324°
2026-04-30 08:45 14.50129 120.97507 3573 ft 92 kts 325°
2026-04-30 08:45 14.50609 120.97075 3746 ft 91 kts 324°
2026-04-30 08:45 14.51083 120.96648 3918 ft 90 kts 324°
2026-04-30 08:46 14.51557 120.96214 4082 ft 92 kts 325°
2026-04-30 08:46 14.52033 120.95776 4254 ft 92 kts 323°
2026-04-30 08:46 14.52506 120.95343 4420 ft 90 kts 324°
2026-04-30 08:46 14.52968 120.94920 4559 ft 90 kts 326°
2026-04-30 08:47 14.53421 120.94470 4709 ft 93 kts 302°
2026-04-30 08:47 14.53293 120.93859 4837 ft 94 kts 225°
2026-04-30 08:47 14.53114 120.93223 4983 ft 95 kts 282°
2026-04-30 08:47 14.53166 120.92550 5144 ft 94 kts 277°
2026-04-30 08:48 14.53220 120.91880 5307 ft 94 kts 278°
2026-04-30 08:48 14.53282 120.91205 5450 ft 95 kts 280°
2026-04-30 08:48 14.53350 120.90528 5610 ft 94 kts 281°
2026-04-30 08:48 14.53418 120.89857 5768 ft 94 kts 281°
2026-04-30 08:49 14.53488 120.89186 5913 ft 94 kts 282°
2026-04-30 08:49 14.53559 120.88517 6079 ft 94 kts 282°
2026-04-30 08:49 14.53631 120.87846 6236 ft 93 kts 283°
2026-04-30 08:49 14.53701 120.87183 6366 ft 94 kts 282°
2026-04-30 08:50 14.53773 120.86507 6474 ft 95 kts 281°
2026-04-30 08:50 14.53852 120.85792 6508 ft 106 kts 282°
2026-04-30 08:50 14.53942 120.84994 6511 ft 117 kts 281°
2026-04-30 08:50 14.54036 120.84135 6511 ft 124 kts 281°
2026-04-30 08:51 14.54131 120.83264 6504 ft 120 kts 280°
2026-04-30 08:51 14.54220 120.82418 6508 ft 117 kts 281°
2026-04-30 08:51 14.54311 120.81568 6504 ft 117 kts 281°
2026-04-30 08:51 14.54399 120.80736 6501 ft 116 kts 281°
2026-04-30 08:52 14.54487 120.79912 6502 ft 115 kts 281°
2026-04-30 08:52 14.54574 120.79088 6496 ft 115 kts 281°
2026-04-30 08:52 14.54661 120.78268 6499 ft 115 kts 281°
2026-04-30 08:52 14.54749 120.77451 6497 ft 115 kts 280°
2026-04-30 08:53 14.54835 120.76628 6497 ft 115 kts 282°
2026-04-30 08:53 14.54922 120.75809 6496 ft 115 kts 281°
2026-04-30 08:53 14.55009 120.74985 6495 ft 116 kts 280°
2026-04-30 08:53 14.55097 120.74162 6499 ft 115 kts 281°
2026-04-30 08:54 14.55185 120.73335 6499 ft 116 kts 281°
2026-04-30 08:54 14.55273 120.72507 6496 ft 116 kts 281°
2026-04-30 08:54 14.55360 120.71682 6503 ft 116 kts 281°
2026-04-30 08:54 14.55449 120.70843 6496 ft 116 kts 281°
2026-04-30 08:55 14.55536 120.70019 6493 ft 115 kts 281°
2026-04-30 08:55 14.55623 120.69197 6500 ft 115 kts 281°
2026-04-30 08:55 14.55710 120.68373 6496 ft 115 kts 281°
2026-04-30 08:55 14.55797 120.67552 6495 ft 115 kts 281°
2026-04-30 08:56 14.55883 120.66737 6497 ft 114 kts 282°
2026-04-30 08:56 14.55969 120.65921 6496 ft 115 kts 281°
2026-04-30 08:56 14.56056 120.65105 6494 ft 115 kts 281°
2026-04-30 08:56 14.56143 120.64281 6492 ft 115 kts 282°
2026-04-30 08:57 14.56228 120.63468 6493 ft 115 kts 281°
2026-04-30 08:57 14.56315 120.62648 6496 ft 115 kts 281°
2026-04-30 08:57 14.56401 120.61829 6494 ft 115 kts 282°
2026-04-30 08:57 14.56488 120.61007 6495 ft 115 kts 281°
2026-04-30 08:58 14.56575 120.60187 6496 ft 115 kts 281°
2026-04-30 08:58 14.56661 120.59369 6504 ft 117 kts 281°
2026-04-30 08:58 14.56752 120.58523 6501 ft 120 kts 281°
2026-04-30 08:58 14.56840 120.57674 6501 ft 118 kts 281°
2026-04-30 08:59 14.56925 120.56842 6500 ft 117 kts 281°
2026-04-30 08:59 14.57014 120.56010 6498 ft 117 kts 281°
2026-04-30 08:59 14.57103 120.55170 6498 ft 118 kts 281°
2026-04-30 08:59 14.57195 120.54319 6501 ft 122 kts 281°
2026-04-30 09:00 14.57285 120.53456 6505 ft 121 kts 280°
2026-04-30 09:00 14.57376 120.52584 6505 ft 122 kts 280°
2026-04-30 09:00 14.57471 120.51692 6506 ft 125 kts 281°
2026-04-30 09:00 14.57564 120.50803 6504 ft 124 kts 281°
2026-04-30 09:01 14.57658 120.49911 6505 ft 126 kts 281°
2026-04-30 09:01 14.57751 120.49023 6502 ft 121 kts 280°
2026-04-30 09:01 14.57841 120.48159 6502 ft 124 kts 281°
2026-04-30 09:01 14.57933 120.47277 6499 ft 122 kts 281°
2026-04-30 09:02 14.58119 120.45511 6499 ft 124 kts 281°
2026-04-30 09:02 14.58209 120.44638 6493 ft 122 kts 281°
2026-04-30 09:02 14.58299 120.43774 6494 ft 120 kts 281°
2026-04-30 09:03 14.58390 120.42912 6488 ft 122 kts 280°
2026-04-30 09:03 14.58482 120.42037 6489 ft 123 kts 281°
2026-04-30 09:03 14.58574 120.41156 6491 ft 123 kts 281°
2026-04-30 09:03 14.58667 120.40274 6498 ft 125 kts 281°
2026-04-30 09:04 14.58760 120.39379 6496 ft 125 kts 280°
2026-04-30 09:04 14.58853 120.38490 6496 ft 124 kts 280°
2026-04-30 09:04 14.58945 120.37605 6488 ft 123 kts 281°
2026-04-30 09:04 14.59036 120.36728 6488 ft 123 kts 281°
2026-04-30 09:05 14.59128 120.35850 6489 ft 123 kts 281°
2026-04-30 09:05 14.59219 120.34976 6489 ft 123 kts 281°
2026-04-30 09:05 14.59310 120.34102 6494 ft 122 kts 281°
2026-04-30 09:05 14.59401 120.33229 6491 ft 122 kts 281°
2026-04-30 09:06 14.59492 120.32355 6494 ft 122 kts 281°
2026-04-30 09:06 14.59583 120.31482 6495 ft 122 kts 281°